Location: Revò
(46.3917°N, 11.0587°E)
Time: 00:28:31
(UTC+02:00)

ISS - Visible Passes

Search period start: 21 May 2026 00:00
Search period end: 31 May 2026 00:00
Orbit: 414 x 424 km, 51.6° (Epoch: 20 May)

Date Brightness Start Highest point End Pass type
(mag) Time Alt. Az. Time Alt. Az. Time Alt. Az.
21 May -3.5 21:51:26 10° WNW 21:54:45 66° NNE 21:57:43 12° ESE visible
21 May -2.0 23:28:34 10° W 23:30:39 22° WSW 23:30:39 22° WSW visible
22 May -2.9 22:40:37 10° WNW 22:43:43 37° SW 22:44:39 30° S visible
23 May -3.5 21:52:46 10° WNW 21:56:03 58° SSW 21:58:40 15° SE visible
24 May -1.6 22:42:40 10° W 22:44:42 15° SW 22:45:39 14° SSW visible
25 May -2.1 21:54:22 10° W 21:57:08 24° SW 21:59:45 11° SSE visible
